User: anonymous   Login
Location: Blue Mountain Vista Observatory
(40.6992°N, 75.9422°W)
Time: 09:26:00
(UTC-05:00)
Language:

Cosmos 1222 Rocket - Orbit

View from above orbital plane
View from above orbital plane
View from above satellite
View from above satellite

Ground track
Ground track

The orbit data is extracted from the following two-line orbital elements,

1 12072U 80093B   14327.16090282  .00070500  00000-0  62969-3 0  2908
2 12072 081.1781 129.4846 0008434 144.9915 215.1897 15.68092946870903
Epoch (UTC): 23 November 2014 03:51:42
Eccentricity: 0.0008434
inclination: 81.1781°
perigee height: 358 km
apogee height: 370 km
right ascension of ascending node: 129.4846°
argument of perigee: 144.9915°
revolutions per day: 15.68092946
mean anomaly at epoch: 215.1897°
orbit number at epoch: 87090

The dashed part of the orbit path shows where the satellite is in the earth's shadow,  

DLR